Wind_Speed
2 2 1 2 2 3 3 4 5 5 5 7 6 6 7 7 6 6 7 7 7 7 7 7 7 7 7 7 8 8 8 8 8 9 9 10 9 9 10 10 10 10 11
3 3 2 2 3 3 4 5 5 6 6 7 7 7 8 8 8 8 8 8 8 8 8 8 8 8 9 8 9 9 9 9 9 9 10 11 11 11 11 11 11 11 11
3 3 3 3 3 4 4 4 5 6 7 7 7 8 8 8 8 8 8 9 9 9 9 9 9 9 9 9 9 9 9 9 9 9 10 11 11 12 11 11 11 11 11
2 3 3 3 4 5 5 5 5 6 6 7 8 8 8 9 9 9 9 10 11 11 11 11 11 11 11 11 11 11 10 10 10 10 11 11 11 12 12 12 12 12 12
3 3 3 4 4 4 5 6 6 7 8 8 8 8 9 9 10 10 11 11 12 12 12 12 12 13 12 12 12 12 12 12 12 12 12 12 12 12 13 13 13 13 13
3 3 3 3 4 5 6 7 7 8 8 8 8 9 9 10 10 10 11 12 12 13 13 13 13 13 13 13 13 13 13 13 14 13 13 13 14 13 14 14 13 14 15
3 3 4 4 5 6 7 8 8 9 9 9 10 10 10 10 10 10 11 12 12 12 13 13 13 13 14 14 14 14 14 14 13 13 13 14 14 14 14 15 15 15 15
3 3 4 4 6 7 8 8 9 10 10 10 11 11 12 11 11 11 11 12 12 12 12 13 13 13 14 15 15 15 15 14 15 15 15 15 14 15 15 15 16 16 16
4 4 5 5 6 8 9 9 10 11 11 11 12 12 11 11 12 13 13 13 13 13 13 14 14 14 14 14 14 14 14 14 15 15 15 15 16 16 16 16 16 17 16
5 6 6 7 8 9 10 11 11 12 12 13 13 13 13 13 14 14 14 13 13 13 14 14 14 14 15 15 14 14 14 15 15 16 16 16 16 16 16 17 17 17 17
7 8 8 9 10 10 11 12 13 13 14 14 14 14 14 14 15 15 14 14 14 14 14 14 15 15 15 15 15 15 15 16 16 16 17 17 17 16 17 17 18 18 17
9 10 11 11 12 12 13 14 14 15 15 16 16 16 16 16 16 16 15 15 15 15 15 15 16 16 16 16 17 17 17 17 17 17 17 17 18 18 17 16 17 18 18
11 11 12 13 14 14 15 15 16 16 17 17 17 17 17 17 17 17 16 16 16 16 16 16 16 17 17 16 17 17 18 18 18 18 18 18 19 19 18 17 18 18 19
12 13 14 15 16 16 17 17 18 18 18 18 18 18 18 18 18 18 18 17 17 17 17 17 17 17 18 18 18 18 19 19 19 20 19 20 20 20 21 20 19 19 20
15 15 16 17 18 18 18 19 20 20 20 19 19 20 20 21 20 20 19 18 18 18 17 18 19 19 18 18 19 19 19 20 21 21 22 22 22 22 23 23 22 22 22
16 17 18 18 19 19 20 20 21 21 21 21 21 22 22 22 22 21 20 20 20 20 19 20 20 20 21 21 20 21 21 22 22 22 22 23 23 24 24 24 23 23 24
17 18 19 20 21 21 21 21 21 22 22 22 22 22 22 22 22 22 22 22 22 22 22 22 22 22 22 22 23 22 22 23 23 23 24 24 24 24 25 25 25 25 25
19 19 20 21 22 22 22 22 22 22 23 23 23 23 23 23 23 23 23 23 23 23 23 23 24 24 24 24 24 24 24 24 24 25 25 25 25 26 26 26 27 27 27
21 21 21 22 22 22 22 23 23 24 24 24 25 24 24 24 24 24 24 25 25 24 25 25 25 25 25 25 25 25 25 25 25 25 25 26 26 26 27 27 27 27 27
22 22 23 24 24 24 24 25 25 26 26 26 26 25 25 26 26 26 26 26 26 26 26 26 26 26 26 26 25 26 26 26 26 25 25 25 26 26 26 27 27 28 28
23 24 24 25 25 25 26 27 27 28 28 27 26 26 27 27 27 27 27 27 27 28 28 28 27 27 27 27 27 26 26 25 25 25 25 26 27 27 27 27 28 28 29
24 25 26 26 26 27 28 28 29 29 28 28 28 29 29 29 29 29 29 29 29 29 28 28 27 27 27 28 28 27 27 26 26 26 26 26 27 27 28 28 29 29 30
26 26 27 27 28 28 29 29 30 30 30 30 30 30 30 31 31 31 31 31 31 30 29 28 28 29 29 29 29 28 28 27 27 27 27 27 28 28 28 29 30 30 30
28 27 28 28 29 30 30 31 32 32 31 31 31 31 31 32 32 32 32 32 31 30 31 31 30 31 31 31 30 30 29 29 28 28 28 28 28 28 29 29 30 31 31
30 29 29 30 30 31 32 32 32 32 32 32 32 32 32 32 33 33 33 32 31 31 31 31 30 31 31 31 30 30 30 30 30 30 30 30 29 29 29 30 31 31 31
31 31 32 32 32 32 33 33 34 33 33 33 33 32 32 33 33 33 32 32 31 31 31 31 31 30 31 31 30 30 31 31 30 31 31 31 31 30 30 30 31 31 31
Wind_Direction
15 14 1 351 343 340 322 321 323 310 311 321 316 316 318 322 315 313 308 303 303 303 303 301 299 296 294 298 296 289 287 281 286 276 272 275 275 270 261 263 264 266 266
360 4 350 330 328 330 324 327 328 318 313 317 314 311 312 312 310 307 308 304 302 301 300 300 300 298 293 290 291 286 282 282 282 282 274 273 276 272 266 265 267 270 269
6 354 338 319 322 329 329 331 326 318 314 315 314 312 307 306 306 302 300 301 299 296 294 295 296 296 295 294 292 286 283 283 282 283 279 275 274 272 270 266 266 270 271
348 333 315 315 319 325 329 328 328 328 324 321 318 319 314 308 302 298 295 295 295 292 289 290 290 292 293 293 290 286 283 281 281 280 281 278 274 274 272 271 269 271 270
338 326 310 312 317 328 331 327 324 326 327 324 321 320 316 311 305 301 298 297 295 295 290 288 287 287 289 292 288 285 282 279 279 279 281 278 277 274 273 271 272 272 270
338 325 323 325 325 328 328 326 326 327 327 326 322 318 317 313 309 308 306 301 298 295 292 292 289 286 287 289 288 285 283 279 279 280 281 279 276 276 273 270 272 272 269
343 329 327 333 333 331 330 328 326 326 324 320 317 316 316 314 311 308 308 307 303 299 295 296 296 293 291 290 288 285 284 280 281 281 278 278 276 276 275 272 272 273 271
334 323 320 321 327 326 324 323 322 322 321 317 316 317 316 314 314 311 309 309 307 305 303 300 298 297 296 295 293 288 286 283 283 283 280 278 274 274 272 271 271 270 270
317 315 317 317 319 320 319 318 320 321 321 319 318 316 314 312 314 311 307 304 305 304 303 301 299 299 298 299 296 293 288 284 284 284 284 282 275 272 270 270 269 267 268
309 308 308 310 313 315 317 316 315 314 316 317 316 315 313 310 311 309 305 300 299 301 301 300 300 299 298 299 298 294 292 289 285 285 285 286 282 278 276 271 267 267 265
306 306 307 308 308 310 313 313 311 311 311 314 314 313 311 310 310 308 305 300 298 297 298 299 299 298 297 296 295 294 292 290 288 286 285 285 285 280 278 276 270 268 265
303 304 304 307 310 310 310 310 309 311 311 312 311 309 307 306 307 306 302 299 296 294 295 297 297 297 298 296 293 293 291 290 288 286 284 283 284 281 277 273 270 268 267
300 302 303 304 305 305 306 305 306 309 308 308 308 307 305 305 305 305 301 296 295 294 295 296 297 298 298 299 296 293 291 289 286 285 283 281 280 279 274 272 271 269 268
293 296 298 299 299 300 302 303 304 304 305 305 305 306 306 305 304 303 302 298 296 295 294 293 294 296 295 294 295 292 290 287 286 284 281 280 279 278 276 273 271 270 269
292 293 294 295 296 296 298 300 301 302 303 302 302 302 303 302 303 299 300 298 296 295 295 294 293 294 293 292 290 291 290 288 286 284 282 280 279 277 277 275 274 272 269
291 291 291 292 293 295 295 297 298 300 301 300 299 300 301 300 301 298 298 297 295 293 293 293 291 291 291 290 290 289 288 288 286 284 282 280 278 276 277 276 274 273 270
293 294 292 292 292 292 293 294 295 297 298 298 297 298 298 298 298 297 296 296 295 293 291 291 288 288 289 289 289 289 287 287 286 284 282 279 278 277 277 276 275 274 271
294 295 295 295 294 294 294 294 295 296 297 298 297 297 298 297 297 296 295 295 294 293 291 290 288 287 288 288 288 288 287 286 285 283 281 280 278 277 277 276 274 272 270
292 292 293 293 292 293 293 294 294 296 297 297 295 295 296 297 296 296 295 294 294 292 292 291 290 289 288 287 287 287 286 286 285 283 280 279 278 278 276 275 273 271 269
289 291 292 292 291 290 292 294 295 296 295 294 293 293 294 295 295 294 293 293 293 292 292 292 292 292 289 287 287 286 285 285 284 283 281 280 279 279 277 275 273 271 269
289 290 290 292 291 289 290 292 293 294 294 294 294 295 294 293 293 292 291 291 291 291 291 292 292 291 290 288 287 286 286 285 283 282 282 281 280 279 277 276 273 271 270
288 288 289 290 291 290 290 290 291 291 291 292 292 293 294 293 292 291 291 291 291 290 290 290 291 290 289 288 287 286 285 283 282 281 281 281 281 280 278 277 274 273 273
289 291 291 291 291 291 291 290 291 291 291 291 291 292 293 294 291 290 290 290 291 291 289 287 288 289 288 287 286 285 284 282 281 281 281 281 281 281 279 278 275 274 274
289 291 292 292 291 291 291 291 290 290 290 291 291 291 291 291 290 289 289 289 289 289 290 288 288 289 289 288 286 284 283 282 281 280 281 281 281 280 279 278 277 275 275
289 290 290 292 292 292 292 292 291 290 290 290 290 290 290 289 290 290 288 288 288 288 289 289 288 290 290 290 287 284 283 282 281 281 282 281 281 281 278 278 277 277 276
287 289 290 291 293 293 292 292 292 291 291 291 291 291 291 290 289 288 287 287 287 288 288 288 289 290 291 290 289 286 285 284 281 281 281 281 281 280 278 277 277 277 276
Height
5896 5896 5896 5896 5896 5896 5896 5895 5895 5894 5893 5893 5892 5891 5891 5890 5890 5889 5888 5888 5887 5886 5885 5884 5883 5883 5882 5881 5881 5880 5879 5878 5879 5879 5878 5878 5878 5878 5878 5879 5879 5879 5879
5896 5896 5896 5896 5896 5895 5895 5894 5894 5893 5893 5892 5891 5890 5890 5889 5888 5888 5887 5886 5885 5885 5884 5883 5882 5881 5880 5879 5879 5878 5878 5877 5877 5876 5876 5875 5875 5875 5876 5876 5876 5876 5877
5896 5896 5896 5895 5895 5895 5894 5894 5893 5892 5892 5891 5890 5889 5888 5888 5887 5886 5885 5884 5884 5883 5882 5881 5880 5879 5878 5877 5876 5876 5875 5875 5874 5874 5873 5873 5872 5872 5873 5873 5873 5873 5874
5896 5896 5895 5895 5894 5894 5894 5893 5892 5891 5890 5889 5888 5888 5887 5886 5885 5884 5883 5882 5881 5880 5879 5879 5878 5877 5876 5875 5874 5873 5873 5872 5872 5871 5871 5870 5870 5870 5870 5870 5870 5870 5870
5896 5895 5895 5894 5894 5893 5893 5892 5891 5890 5889 5888 5887 5886 5885 5884 5883 5882 5881 5880 5879 5877 5877 5876 5875 5874 5873 5872 5871 5871 5870 5869 5869 5868 5868 5867 5867 5867 5867 5867 5867 5867 5867
5895 5895 5894 5894 5893 5893 5892 5891 5890 5889 5888 5887 5886 5885 5883 5882 5881 5880 5878 5877 5876 5875 5874 5873 5872 5871 5870 5869 5868 5868 5867 5866 5866 5865 5865 5864 5864 5864 5863 5864 5864 5864 5864
5895 5894 5894 5893 5893 5892 5891 5890 5889 5888 5887 5885 5884 5883 5881 5880 5879 5877 5876 5874 5873 5872 5871 5870 5869 5868 5867 5866 5865 5864 5863 5863 5862 5861 5861 5861 5860 5860 5860 5860 5860 5860 5860
5894 5894 5893 5893 5892 5891 5890 5889 5888 5886 5885 5884 5882 5881 5879 5878 5876 5875 5874 5872 5871 5869 5868 5867 5866 5865 5864 5863 5862 5861 5860 5859 5858 5858 5857 5857 5857 5856 5856 5856 5856 5856 5856
5894 5893 5892 5891 5891 5890 5889 5888 5886 5885 5883 5881 5880 5879 5877 5876 5874 5873 5871 5869 5868 5866 5865 5864 5863 5862 5861 5860 5858 5857 5856 5855 5855 5854 5854 5853 5853 5852 5852 5852 5851 5851 5851
5893 5892 5891 5890 5889 5888 5887 5885 5884 5882 5881 5879 5877 5876 5874 5873 5871 5870 5868 5866 5865 5863 5862 5861 5860 5859 5857 5856 5855 5854 5852 5852 5851 5850 5850 5849 5848 5848 5848 5848 5847 5847 5847
5891 5890 5889 5888 5887 5886 5884 5883 5882 5880 5878 5877 5875 5873 5871 5870 5868 5866 5865 5864 5862 5860 5859 5858 5856 5855 5854 5852 5851 5850 5849 5848 5847 5846 5845 5845 5844 5844 5844 5843 5843 5843 5842
5889 5888 5887 5886 5885 5883 5882 5880 5879 5877 5875 5874 5872 5870 5868 5867 5865 5863 5862 5860 5859 5857 5855 5854 5853 5851 5850 5848 5847 5846 5844 5843 5842 5841 5841 5840 5839 5839 5839 5838 5838 5838 5838
5887 5886 5885 5883 5882 5881 5879 5878 5876 5874 5872 5870 5868 5867 5865 5863 5861 5860 5858 5856 5855 5853 5852 5850 5849 5847 5846 5844 5842 5841 5839 5838 5837 5836 5836 5835 5834 5834 5833 5833 5833 5832 5833
5884 5883 5881 5880 5879 5877 5876 5874 5872 5870 5868 5866 5864 5863 5861 5859 5857 5856 5854 5852 5851 5850 5847 5846 5844 5842 5841 5839 5838 5836 5834 5833 5832 5831 5830 5829 5829 5828 5827 5827 5826 5827 5827
5880 5879 5878 5876 5875 5873 5872 5870 5868 5866 5864 5862 5860 5858 5856 5854 5852 5851 5849 5848 5847 5845 5843 5841 5839 5837 5836 5834 5833 5831 5829 5828 5827 5825 5824 5823 5823 5822 5821 5821 5820 5820 5821
5876 5875 5873 5872 5870 5869 5867 5865 5864 5861 5859 5858 5855 5853 5851 5849 5847 5845 5844 5842 5841 5839 5838 5836 5834 5832 5830 5828 5827 5825 5823 5822 5820 5819 5818 5817 5816 5815 5814 5814 5814 5814 5814
5872 5870 5868 5867 5865 5863 5862 5860 5858 5856 5854 5852 5850 5848 5846 5843 5841 5840 5838 5836 5835 5833 5831 5830 5828 5826 5824 5822 5820 5818 5816 5815 5813 5812 5811 5810 5809 5808 5807 5807 5806 5806 5806
5867 5865 5863 5862 5860 5858 5856 5854 5852 5850 5848 5846 5844 5842 5840 5838 5836 5834 5832 5830 5828 5826 5824 5823 5821 5819 5817 5815 5813 5811 5809 5807 5806 5804 5803 5802 5801 5800 5799 5799 5798 5798 5798
5861 5860 5858 5856 5854 5852 5851 5848 5846 5844 5842 5840 5838 5836 5834 5832 5830 5827 5825 5823 5821 5819 5817 5815 5814 5812 5810 5807 5805 5804 5801 5800 5797 5796 5795 5794 5793 5792 5791 5790 5790 5790 5790
5855 5854 5852 5850 5848 5847 5845 5842 5840 5838 5835 5833 5831 5829 5827 5825 5823 5821 5818 5816 5814 5812 5810 5808 5806 5804 5802 5799 5797 5796 5794 5792 5790 5788 5786 5785 5784 5783 5783 5782 5782 5781 5781
5849 5847 5845 5844 5842 5840 5838 5836 5833 5831 5828 5826 5824 5822 5819 5817 5815 5813 5811 5809 5807 5804 5802 5800 5798 5796 5794 5791 5789 5787 5785 5784 5782 5780 5778 5777 5776 5775 5774 5773 5773 5772 5772
5842 5840 5839 5837 5835 5833 5830 5828 5826 5823 5821 5819 5816 5814 5811 5809 5807 5805 5802 5800 5798 5796 5794 5792 5790 5787 5785 5783 5781 5778 5777 5775 5774 5773 5771 5769 5768 5767 5766 5765 5764 5763 5763
5835 5833 5832 5830 5827 5825 5823 5820 5818 5815 5813 5811 5808 5806 5804 5801 5799 5796 5794 5792 5789 5787 5785 5783 5781 5779 5776 5774 5772 5770 5768 5766 5765 5763 5762 5761 5759 5758 5757 5756 5755 5754 5754
5828 5826 5824 5822 5820 5817 5815 5812 5810 5807 5805 5802 5800 5798 5795 5792 5789 5787 5785 5783 5780 5778 5775 5773 5772 5770 5767 5765 5762 5761 5759 5758 5756 5754 5753 5752 5750 5749 5748 5746 5745 5744 5744
5820 5818 5816 5814 5811 5809 5806 5803 5801 5798 5795 5793 5790 5788 5786 5783 5780 5778 5776 5773 5771 5768 5766 5763 5761 5759 5757 5755 5753 5751 5749 5748 5747 5745 5743 5742 5741 5739 5738 5737 5736 5735 5734
5811 5809 5807 5805 5803 5800 5797 5795 5792 5789 5787 5784 5781 5778 5776 5774 5771 5768 5766 5764 5762 5759 5757 5754 5752 5750 5748 5745 5743 5741 5739 5737 5736 5735 5733 5732 5730 5728 5728 5727 5726 5725 5724